SGDC

Last updated on Sun Jun 21 2026 00:03:07 GMT+0000 (Coordinated Universal Time)

1 42692U 17023B 26170.46442940 -.00000255 00000+0 00000+0 0 9996 2 42692 0.0156 1.6765 0002663 94.1070 264.2343 1.00269861 33430
UTC large
Height (km)
Speed (km/s)
/
Latitude / Longitude
Inclination (degrees)
Orbital Period (minutes)
Azimuth
Elevation
Range (km)
Doppler Factor

Next 0 passes for location: London (51.5072 / 0.1276)

No passes found over London.
SGDC